Location: Kershaw
(34.5481°N, 80.5823°W)
Time: 08:28:35
(UTC+00:00)

Explorer 7 - Pass Details

Date: 03 October 2022
Orbit: 481 x 665 km, 50.3° (Epoch: 28 November)

Event Time Altitude Azimuth Distance (km) Brightness Sun altitude
Rises 16:15:19 0° 257° (WSW) 2,991 10.5 49.1°
Reaches altitude 10° 16:17:55 10° 268° (W) 2,084 9.7 49.3°
Maximum altitude 16:22:11 30° 330° (NNW) 1,174 8.4 49.6°
Drops below altitude 10° 16:26:25 10° 32° (NNE) 2,063 9.6 49.9°
Sets 16:28:58 0° 43° (NE) 2,955 10.3 50.0°
